User: anonymous   Login
Location: Caltech
(34.1382°N, 118.1253°W)
Time: 13:53:05
(UTC-07:00)
Language:

ASTRO E2 - Orbit

View from above orbital plane
View from above orbital plane
View from above satellite
View from above satellite

Ground track
Ground track

The orbit data is extracted from the following two-line orbital elements,

1 28773U 05025A   17294.94308351 +.00001383 +00000-0 +65569-4 0  9995
2 28773 031.3821 194.2775 0004690 183.0101 177.0518 15.16124790676627
Epoch (UTC): 21 October 2017 22:38:02
Eccentricity: 0.0004690
inclination: 31.3821°
perigee height: 514 km
apogee height: 521 km
right ascension of ascending node: 194.2775°
argument of perigee: 183.0101°
revolutions per day: 15.16124790
mean anomaly at epoch: 177.0518°
orbit number at epoch: 67662

The dashed part of the orbit path shows where the satellite is in the earth's shadow,  

DLR